This demonstration page uses our WeatherBlox Daily Observations layout. Learn more.

Left ArrowRight Arrow

Hourly Observations for May 17, 2022

Temp ( °F °C ) Dew Point ( °F °C ) Humidity (%) Winds ( mph kmh ) Pressure ( in mb ) Visibility ( mi km ) Precip ( " mm )
12:59 am 00:59 Mostly Clear 69 20.6 55 12.8 61 61 N 6 9 29.87 1012 10 16 0.00 0.00
1:59 am 01:59 Mostly Clear 67 19.4 53 11.7 61 61 NNW 6 9 29.88 1012 10 16 0.00 0.00
2:59 am 02:59 Clear 60 15.6 53 11.7 78 78 Calm 29.88 1012 10 16 0.00 0.00
3:59 am 03:59 Clear 59 15 53 11.7 81 81 Calm 29.88 1012 10 16 0.00 0.00
4:59 am 04:59 Clear 59 15 53 11.7 81 81 Calm 29.89 1012 10 16 0.00 0.00
5:59 am 05:59 Sunny 60 15.6 54 12.2 80 80 SSW 5 7 29.91 1013 10 16 0.00 0.00
6:59 am 06:59 Sunny 63 17.2 57 13.9 81 81 SW 5 7 29.93 1014 10 16 0.00 0.00
7:59 am 07:59 Sunny 67 19.4 52 11.1 59 59 W 6 9 29.94 1014 10 16 0.00 0.00
8:59 am 08:59 Sunny 69 20.6 53 11.7 57 57 W 8 13 29.96 1014 10 16 0.00 0.00
9:59 am 09:59 Sunny 72 22.2 53 11.7 52 52 W 12 19 29.96 1015 10 16 0.00 0.00
10:59 am 10:59 Sunny 76 24.4 54 12.2 47 47 W 12 19 29.96 1015 10 16 0.00 0.00
11:59 am 11:59 Sunny 78 25.6 51 10.6 39 39 W 9 15 29.96 1014 10 16 0.00 0.00
12:59 pm 12:59 Mostly Sunny 80 26.7 48 8.9 33 33 NW 8 13 29.93 1014 10 16 0.00 0.00
1:59 pm 13:59 Mostly Sunny 80 26.7 46 7.8 30 30 WSW 8 13 29.91 1013 10 16 0.00 0.00
2:59 pm 14:59 Mostly Sunny 81 27.2 45 7.2 28 28 W 7 11 29.89 1012 10 16 0.00 0.00
3:59 pm 15:59 Mostly Sunny 83 28.3 46 7.8 27 27 WSW 13 20 29.88 1012 10 16 0.00 0.00
4:59 pm 16:59 Mostly Sunny 83 28.3 47 8.3 28 28 WSW 12 19 29.87 1012 10 16 0.00 0.00
5:59 pm 17:59 Mostly Sunny 82 27.8 48 8.9 31 31 W 12 19 29.87 1012 10 16 0.00 0.00
6:59 pm 18:59 Mostly Sunny 81 27.2 51 10.6 35 35 WSW 6 9 29.88 1012 10 16 0.00 0.00
7:59 pm 19:59 Sunny 77 25 50 10 39 39 SSW 5 7 29.88 1012 10 16 0.00 0.00
8:59 pm 20:59 Clear 74 23.3 52 11.1 46 46 SSW 6 9 29.90 1013 10 16 0.00 0.00
9:59 pm 21:59 Clear 74 23.3 51 10.6 45 45 SW 7 11 29.92 1013 10 16 0.00 0.00
10:59 pm 22:59 Clear 72 22.2 51 10.6 48 48 SSW 6 9 29.92 1013 10 16 0.00 0.00
11:59 pm 23:59 Clear 70 21.1 51 10.6 51 51 undefined N/A 29.93 1013 10 16 0.00 0.00

Powered by AerisWeather